[[{"header":{"parameterUnit":"m.s-1","parameterCategory":1,"la1":30.2991,"la2":30.254,"lo1":-89.0895,"lo2":-89.0444,"dy":0.0017,"dx":0.0017,"nx":28,"ny":28,"refTime":"2025-11-04T03:00:00:Z","depth":0,"parameterNumber":2,"parameterNumberName":"U-component_of_WINDS"},"data":[0,0,0,0,0,0,0,0,0,0,0,0,0,0,0,0,0,0,0,0,0,0,0,0,0,0,0,0,0,0,0,0,0,0,0,0,0,0,0,0,0,0,0,0,0,0,0,0,0,0,0,0,0,0,0,0,0,0,0.5516,0.5517,0,0.5584,0.5585,0.5586,0.5638,0.5639,0.5639,0.564,0.5709,0.571,0.5711,0,0,0,0,0,0,0,0,0,0,0,0,0,0.5431,0.5432,0.5516,0.5517,0.5518,0.5584,0.5585,0.5586,0.5638,0.5639,0.564,0.564,0.5708,0.571,0.5712,0,0,0,0,0,0,0,0,0,0,0,0,0,0.548,0.5433,0.5516,0.5552,0.5556,0.5584,0.5585,0.5586,0.5638,0.5639,0.564,0.564,0.5708,0.571,0.5712,0.5709,0,0,0.5718,0.5719,0,0,0,0,0,0,0,0,0.5477,0.5483,0.5546,0.5549,0.5554,0.5604,0.558,0.5627,0.5638,0.5607,0.564,0.5641,0.5673,0.5678,0.5689,0.5712,0.5715,0.5718,0.5719,0.572,0.5721,0,0,0,0,0,0,0,0.5474,0.5481,0.5543,0.5547,0.5552,0.5565,0.5572,0.5589,0.5635,0.561,0.5614,0.5621,0.5675,0.5687,0.5691,0.5716,0.5718,0.572,0.5721,0.5722,0.5741,0.5741,0,0,0,0,0,0,0.5465,0.5478,0.5541,0.5545,0.5517,0.5565,0.5574,0.5587,0.5635,0.5643,0.562,0.5623,0.5683,0.5689,0.5694,0.5694,0.572,0.5722,0.5723,0.5742,0.5741,0.5741,0,0,0,0,0,0,0.5463,0.547,0.5538,0.5512,0.5522,0.5566,0.558,0.5588,0.5599,0.5643,0.5651,0.5624,0.5684,0.5691,0.5705,0.5697,0.5723,0.5725,0.5743,0.5742,0.5741,0.5694,0,0,0,0,0,0,0.546,0.5469,0.5469,0.5512,0.5523,0.5548,0.5579,0.5588,0.5603,0.5607,0.5648,0.5656,0.5685,0.5702,0.5707,0.57,0.5727,0.5744,0.5742,0.5741,0.5696,0.5691,0.5687,0,0,0,0,0,0.5457,0.5452,0.5468,0.5476,0.5523,0.5547,0.5554,0.5588,0.5602,0.5602,0.563,0.5655,0.5697,0.5703,0.5709,0.5703,0.5745,0.5743,0.5741,0.5698,0.5692,0.5687,0,0,0,0,0,0,0.5406,0.5459,0.5477,0.5486,0.5512,0.5556,0.5557,0.558,0.5602,0.5606,0.5647,0.5656,0.5665,0.5686,0.5691,0.5703,0.5724,0.5724,0.5689,0.5684,0.5679,0.5674,0.5728,0,0,0,0,0,0.5396,0.5411,0.5456,0.546,0.5472,0.5512,0.5524,0.5548,0.5576,0.5588,0.5617,0.5643,0.5663,0.5675,0.5695,0.57,0.571,0.5699,0.5694,0.569,0.5689,0.5693,0.5689,0.5735,0.5735,0.5735,0,0,0.5375,0.5406,0.5413,0.5451,0.5474,0.5488,0.5521,0.5535,0.5547,0.559,0.5605,0.5627,0.566,0.5669,0.5675,0.5686,0.5679,0.5688,0.5685,0.5686,0.5691,0.5687,0.5683,0.5734,0.5734,0.5735,0,0,0.5345,0.5369,0.5375,0.5398,0.5432,0.5459,0.5461,0.5502,0.5518,0.5534,0.5567,0.5581,0.5614,0.5636,0.5651,0.563,0.5653,0.5635,0.5611,0.5614,0.5611,0.5608,0.56,0.5596,0.5634,0.5634,0.5634,0,0.5314,0.5338,0.5375,0.5388,0.5404,0.5444,0.545,0.547,0.5509,0.5519,0.5532,0.5574,0.5598,0.5614,0.5609,0.562,0.5622,0.563,0.5608,0.5606,0.5603,0.5596,0.5593,0.5632,0.5632,0.5632,0.5632,0,0.5299,0.5315,0.5316,0.5353,0.5369,0.5378,0.5417,0.5428,0.5451,0.5476,0.5492,0.5524,0.5551,0.5557,0.5579,0.5575,0.5581,0.5601,0.5622,0.5596,0.559,0.5587,0.5628,0.5629,0.563,0.563,0,0,0.5237,0.5295,0.5295,0.5313,0.5354,0.5367,0.5379,0.5406,0.5415,0.5441,0.5451,0.5478,0.5496,0.5514,0.5539,0.5542,0.5523,0.5561,0.5563,0.5553,0.5521,0.5506,0.5502,0.554,0.5539,0.5539,0.5518,0,0.5212,0.5235,0.5269,0.528,0.5296,0.5335,0.5345,0.5371,0.5396,0.5412,0.5439,0.5457,0.548,0.5491,0.5496,0.5524,0.5517,0.5527,0.5549,0.555,0.5539,0.5499,0.5483,0.5462,0.5516,0.5516,0.5516,0,0.5186,0.5211,0.5223,0.5265,0.5272,0.528,0.5308,0.5324,0.5355,0.5372,0.5392,0.542,0.5434,0.5454,0.5474,0.5479,0.5491,0.5506,0.5506,0.5509,0.553,0.55,0.5456,0.5452,0.5512,0.5513,0.5513,0,0.5139,0.5175,0.5188,0.5202,0.525,0.5255,0.5275,0.5307,0.5321,0.5346,0.5356,0.5381,0.5395,0.5414,0.5448,0.546,0.5464,0.5487,0.5479,0.5478,0.5477,0.5477,0.5433,0.5486,0.5486,0.5486,0.5486,0,0.5108,0.5114,0.5168,0.5175,0.5183,0.5223,0.523,0.5254,0.5282,0.5295,0.533,0.5341,0.5386,0.5402,0.5429,0.5441,0.5447,0.5462,0.5469,0.5458,0.5456,0.5466,0.5468,0.5485,0.5485,0.5485,0.5485,0,0.5056,0.5092,0.5109,0.5153,0.5165,0.5169,0.5207,0.5216,0.5242,0.5258,0.5264,0.5306,0.5327,0.5364,0.5395,0.5413,0.542,0.5432,0.5409,0.5413,0.5403,0.5403,0.5364,0.536,0.5415,0.5414,0.5414,0,0.5034,0.5039,0.5085,0.5096,0.5115,0.5133,0.5148,0.5188,0.5202,0.5238,0.5243,0.5267,0.5288,0.532,0.5353,0.5378,0.5391,0.5375,0.5394,0.5384,0.539,0.5389,0.5389,0.537,0.5369,0.5369,0.5368,0,0.4989,0.5007,0.5028,0.5054,0.5072,0.5094,0.5119,0.5126,0.5172,0.5186,0.5208,0.5225,0.5257,0.5281,0.531,0.5331,0.5357,0.5362,0.5362,0.535,0.5337,0.5344,0.5397,0.5363,0.5363,0.5364,0.5364,0.5364,0.4951,0.4958,0.4991,0.5013,0.5036,0.5059,0.5069,0.5098,0.5117,0.5147,0.517,0.519,0.5222,0.5264,0.5284,0.53,0.5312,0.5311,0.5311,0.531,0.5305,0.5335,0.5306,0.5306,0.5306,0.5307,0.5307,0,0.4908,0.4932,0.4951,0.4985,0.5002,0.5026,0.5055,0.5068,0.5086,0.5113,0.5134,0.516,0.5183,0.5218,0.5244,0.5251,0.5263,0.5256,0.5256,0.526,0.5294,0.5292,0.5246,0.5246,0.5246,0.5246,0.5246,0.5246,0.4887,0.4901,0.4923,0.4948,0.4972,0.4993,0.5007,0.5028,0.505,0.5077,0.5097,0.512,0.5151,0.518,0.5202,0.5212,0.5219,0.5208,0.5222,0.5252,0.5258,0.5263,0.5261,0.521,0.521,0.5187,0.5187,0.5187]},{"header":{"parameterUnit":"m.s-1","parameterCategory":1,"la1":30.2991,"la2":30.254,"lo1":-89.0895,"lo2":-89.0444,"dy":0.0017,"dx":0.0017,"nx":28,"ny":28,"refTime":"2025-11-04T03:00:00:Z","depth":0,"parameterNumber":3,"parameterNumberName":"V-component_of_WINDS"},"data":[0,0,0,0,0,0,0,0,0,0,0,0,0,0,0,0,0,0,0,0,0,0,0,0,0,0,0,0,0,0,0,0,0,0,0,0,0,0,0,0,0,0,0,0,0,0,0,0,0,0,0,0,0,0,0,0,0,0,-0.7827,-0.7827,0,-0.7786,-0.7786,-0.7786,-0.7758,-0.7758,-0.7758,-0.7757,-0.7716,-0.7715,-0.7714,0,0,0,0,0,0,0,0,0,0,0,0,0,-0.7884,-0.7883,-0.7827,-0.7827,-0.7826,-0.7787,-0.7786,-0.7785,-0.7758,-0.7758,-0.7758,-0.7757,-0.7716,-0.7715,-0.7714,0,0,0,0,0,0,0,0,0,0,0,0,0,-0.7853,-0.7882,-0.7827,-0.7808,-0.7806,-0.7787,-0.7786,-0.7785,-0.7758,-0.7758,-0.7758,-0.7757,-0.7717,-0.7715,-0.7714,-0.7711,0,0,-0.771,-0.7709,0,0,0,0,0,0,0,0,-0.7854,-0.7851,-0.7811,-0.7809,-0.7807,-0.7777,-0.7791,-0.776,-0.7758,-0.7776,-0.7757,-0.7757,-0.7737,-0.7733,-0.7726,-0.7709,-0.7707,-0.771,-0.7709,-0.7708,-0.7708,0,0,0,0,0,0,0,-0.7857,-0.7852,-0.7811,-0.7811,-0.7808,-0.7802,-0.7797,-0.7785,-0.7759,-0.7775,-0.7773,-0.7768,-0.7735,-0.7728,-0.7725,-0.7707,-0.771,-0.7708,-0.7707,-0.7707,-0.7687,-0.7687,0,0,0,0,0,0,-0.7862,-0.7854,-0.7812,-0.781,-0.783,-0.7801,-0.7796,-0.7787,-0.7759,-0.7754,-0.7768,-0.7767,-0.773,-0.7727,-0.7724,-0.772,-0.7708,-0.7707,-0.7706,-0.7687,-0.7687,-0.7687,0,0,0,0,0,0,-0.7863,-0.7858,-0.7814,-0.7831,-0.7825,-0.78,-0.7791,-0.7786,-0.7779,-0.7754,-0.7749,-0.7765,-0.773,-0.7726,-0.7715,-0.7718,-0.7706,-0.7705,-0.7686,-0.7687,-0.7687,-0.7711,0,0,0,0,0,0,-0.7865,-0.7859,-0.7857,-0.7832,-0.7825,-0.7806,-0.7791,-0.7786,-0.7776,-0.7774,-0.775,-0.7746,-0.7729,-0.7717,-0.7713,-0.7716,-0.7704,-0.7686,-0.7686,-0.7687,-0.771,-0.7712,-0.7714,0,0,0,0,0,-0.7867,-0.7865,-0.7857,-0.7852,-0.7822,-0.7806,-0.7802,-0.7783,-0.7777,-0.7775,-0.7759,-0.7746,-0.7718,-0.7716,-0.7712,-0.7714,-0.7686,-0.7686,-0.7687,-0.7709,-0.7712,-0.7714,0,0,0,0,0,0,-0.7891,-0.7861,-0.7852,-0.7842,-0.7827,-0.7801,-0.7798,-0.7786,-0.7773,-0.7771,-0.7749,-0.7744,-0.7735,-0.7723,-0.7722,-0.771,-0.77,-0.77,-0.7718,-0.7721,-0.7723,-0.7726,-0.7703,0,0,0,0,0,-0.7895,-0.7884,-0.7859,-0.7853,-0.7846,-0.7823,-0.7816,-0.7803,-0.7786,-0.7779,-0.7763,-0.7747,-0.7735,-0.7727,-0.7714,-0.7708,-0.7703,-0.7707,-0.7709,-0.7711,-0.7711,-0.7708,-0.771,-0.769,-0.769,-0.769,0,0,-0.7904,-0.7886,-0.7881,-0.7857,-0.7844,-0.7834,-0.7818,-0.7808,-0.78,-0.7778,-0.7767,-0.7754,-0.7735,-0.7727,-0.7723,-0.7717,-0.7716,-0.7712,-0.7714,-0.7713,-0.7709,-0.7711,-0.7713,-0.769,-0.769,-0.769,0,0,-0.7914,-0.79,-0.7893,-0.788,-0.786,-0.7846,-0.7845,-0.7821,-0.7812,-0.7801,-0.7784,-0.7775,-0.7754,-0.7742,-0.7733,-0.7741,-0.7729,-0.7737,-0.7749,-0.7746,-0.7748,-0.7749,-0.7753,-0.7754,-0.7737,-0.7738,-0.7738,0,-0.7927,-0.7911,-0.7891,-0.7882,-0.7873,-0.7853,-0.7847,-0.7835,-0.7812,-0.7807,-0.7801,-0.7775,-0.7761,-0.775,-0.7752,-0.7745,-0.7744,-0.774,-0.7749,-0.775,-0.7751,-0.7754,-0.7756,-0.7739,-0.7739,-0.7738,-0.7738,0,-0.7929,-0.7918,-0.7915,-0.7894,-0.7884,-0.7877,-0.7857,-0.785,-0.7838,-0.7825,-0.7814,-0.7797,-0.7781,-0.7777,-0.7765,-0.7765,-0.7762,-0.7753,-0.7743,-0.7755,-0.7757,-0.7758,-0.774,-0.774,-0.774,-0.7739,0,0,-0.7952,-0.7921,-0.7921,-0.7911,-0.7889,-0.788,-0.7873,-0.7857,-0.7852,-0.7837,-0.7831,-0.7814,-0.7806,-0.7796,-0.7783,-0.778,-0.7789,-0.7771,-0.777,-0.7776,-0.7789,-0.7796,-0.7798,-0.7781,-0.7781,-0.7781,-0.779,0,-0.796,-0.7944,-0.7927,-0.7918,-0.7908,-0.789,-0.7883,-0.7869,-0.7857,-0.7848,-0.7834,-0.7823,-0.7812,-0.7806,-0.7803,-0.7789,-0.7791,-0.7788,-0.7775,-0.7775,-0.7781,-0.7799,-0.7806,-0.7816,-0.7791,-0.7791,-0.7792,0,-0.7966,-0.7953,-0.7943,-0.7922,-0.7918,-0.7912,-0.7897,-0.7888,-0.7872,-0.7863,-0.7853,-0.784,-0.7831,-0.7822,-0.7811,-0.7809,-0.7803,-0.7796,-0.7796,-0.7794,-0.7784,-0.7798,-0.7819,-0.782,-0.7793,-0.7793,-0.7793,0,-0.7985,-0.7965,-0.7956,-0.7949,-0.7925,-0.7921,-0.7911,-0.7895,-0.7887,-0.7875,-0.787,-0.7856,-0.7849,-0.7839,-0.7823,-0.7817,-0.7814,-0.7803,-0.7807,-0.7807,-0.7807,-0.7807,-0.7827,-0.7803,-0.7803,-0.7803,-0.7803,0,-0.7995,-0.799,-0.7965,-0.796,-0.7954,-0.7935,-0.793,-0.7918,-0.7904,-0.7897,-0.788,-0.7874,-0.7853,-0.7844,-0.7831,-0.7825,-0.7821,-0.7815,-0.7811,-0.7816,-0.7817,-0.7812,-0.7811,-0.7803,-0.7803,-0.7803,-0.7803,0,-0.8015,-0.7998,-0.7988,-0.7966,-0.7961,-0.7958,-0.7939,-0.7934,-0.7921,-0.7913,-0.791,-0.789,-0.7879,-0.7862,-0.7846,-0.7837,-0.7834,-0.7828,-0.7839,-0.7837,-0.7842,-0.7842,-0.786,-0.7861,-0.7836,-0.7836,-0.7836,0,-0.8023,-0.8018,-0.7997,-0.7991,-0.7981,-0.7972,-0.7964,-0.7946,-0.7939,-0.7922,-0.7919,-0.7907,-0.7896,-0.7881,-0.7865,-0.7853,-0.7847,-0.7854,-0.7845,-0.7851,-0.7848,-0.7849,-0.7849,-0.7856,-0.7857,-0.7857,-0.7857,0,-0.8038,-0.8031,-0.802,-0.8007,-0.7999,-0.7987,-0.7975,-0.7972,-0.7951,-0.7944,-0.7933,-0.7925,-0.791,-0.7898,-0.7885,-0.7875,-0.7863,-0.786,-0.7861,-0.7866,-0.7873,-0.787,-0.7845,-0.786,-0.786,-0.7859,-0.7859,-0.7859,-0.8053,-0.8049,-0.8033,-0.8022,-0.8012,-0.8001,-0.7996,-0.7983,-0.7973,-0.7959,-0.7949,-0.794,-0.7925,-0.7906,-0.7897,-0.7889,-0.7884,-0.7884,-0.7884,-0.7885,-0.7887,-0.7874,-0.7887,-0.7886,-0.7886,-0.7886,-0.7886,0,-0.8068,-0.8057,-0.8048,-0.8032,-0.8024,-0.8014,-0.8001,-0.7995,-0.7986,-0.7974,-0.7964,-0.7953,-0.7942,-0.7926,-0.7915,-0.7912,-0.7906,-0.791,-0.791,-0.7908,-0.7892,-0.7893,-0.7914,-0.7914,-0.7914,-0.7914,-0.7914,-0.7914,-0.8075,-0.8068,-0.8058,-0.8046,-0.8036,-0.8026,-0.802,-0.8011,-0.8001,-0.7989,-0.798,-0.797,-0.7956,-0.7944,-0.7934,-0.793,-0.7927,-0.7932,-0.7926,-0.7911,-0.7909,-0.7906,-0.7907,-0.7931,-0.7931,-0.7942,-0.7943,-0.7943]}]]